Charlottesville, VA

1:58 AM EDT on April 25, 2018 (GMT -0400)
Charlottesville-Albemarle

Weather History for KCHO - November, 2014

Change the Weather History Date:

Monday, November 3, 2014

  Actual Average Record
Temperature  
Mean Temperature 52 °F 51 °F  
Max Temperature 66 °F 62 °F 85 °F (1971)
Min Temperature 38 °F 40 °F 26 °F (2006)
Degree Days  
Heating Degree Days 13 14  
Month to date heating degree days 52 42  
Since 1 July heating degree days 283 391  
Cooling Degree Days 0 0  
Month to date cooling degree days 0 0  
Year to date cooling degree days 1096 1034  
Growing Degree Days 2 (Base 50)    
Moisture  
Dew Point 20 °F    
Average Humidity 31    
Maximum Humidity 48    
Minimum Humidity 13    
Precipitation  
Precipitation 0.00 in 0.14 in 1.59 in (1992)
Month to date precipitation T 0.39  
Year to date precipitation 33.09 36.12  
Sea Level Pressure  
Sea Level Pressure 30.27 in    
Wind  
Wind Speed 6 mph (SSW)    
Max Wind Speed 14 mph    
Max Gust Speed 17 mph    
Visibility 10 miles    
Events      
T = Trace of Precipitation, MM = Missing Value Source: NWS Daily Summary

Daily Weather History Graph

Daily Weather History Graph

Search for Another Location

Airport or City:

Astronomy

Nov. 03, 2014 Rise Set
Actual Time 6:41 AM EST 5:12 PM EST
Civil Twilight 6:14 AM EST 5:39 PM EST
Nautical Twilight 5:43 AM EST 6:11 PM EST
Astronomical Twilight 5:12 AM EST 6:41 PM EST
Moon 3:17 PM EST (11/3) 2:53 AM EST (11/3)
Length of Visible Light 11h 25m
Length of Day
10h 30m
Waxing Gibbous, 87% of the Moon is Illuminated
Nov 3
Waxing Gibbous
Nov 6
Full
Nov 14
Last Quarter
Nov 22
New
Nov 29
First Quarter

Hourly Weather History & Observations

Time (EST) Temp. Windchill Dew Point Humidity Pressure Visibility Wind Dir Wind Speed Gust Speed Precip Events Conditions
12:53 AM 44.1 °F - 19.0 °F 37% 30.27 in 10.0 mi Calm Calm - N/A   Clear
1:53 AM 41.0 °F 38.0 °F 19.9 °F 43% 30.27 in 10.0 mi Variable 4.6 mph - N/A   Clear
2:53 AM 42.1 °F 37.7 °F 21.0 °F 43% 30.27 in 10.0 mi WSW 6.9 mph - N/A   Clear
3:53 AM 39.9 °F 37.8 °F 21.0 °F 47% 30.29 in 10.0 mi South 3.5 mph - N/A   Clear
4:53 AM 41.0 °F - 19.9 °F 43% 30.29 in 10.0 mi Calm Calm - N/A   Clear
5:53 AM 39.9 °F 37.8 °F 19.9 °F 45% 30.29 in 10.0 mi SSE 3.5 mph - N/A   Clear
6:53 AM 43.0 °F 39.5 °F 19.9 °F 40% 30.31 in 10.0 mi SW 5.8 mph - N/A   Clear
7:53 AM 45.0 °F 42.6 °F 23.0 °F 42% 30.32 in 10.0 mi SW 4.6 mph - N/A   Clear
8:53 AM 48.9 °F - 21.0 °F 33% 30.32 in 10.0 mi West 6.9 mph - N/A   Clear
9:53 AM 55.9 °F - 17.1 °F 22% 30.34 in 10.0 mi Variable 3.5 mph - N/A   Clear
10:53 AM 60.1 °F - 17.1 °F 19% 30.34 in 10.0 mi SSW 5.8 mph - N/A   Clear
11:53 AM 62.1 °F - 16.0 °F 17% 30.34 in 10.0 mi Variable 4.6 mph - N/A   Clear
12:53 PM 64.0 °F - 14.0 °F 14% 30.30 in 10.0 mi South 10.4 mph - N/A   Clear
1:53 PM 64.9 °F - 12.0 °F 13% 30.28 in 10.0 mi Variable 4.6 mph - N/A   Clear
2:53 PM 66.0 °F - 18.0 °F 16% 30.25 in 10.0 mi South 11.5 mph - N/A   Clear
3:53 PM 63.0 °F - 19.9 °F 19% 30.25 in 10.0 mi SSW 8.1 mph - N/A   Partly Cloudy
4:53 PM 60.1 °F - 21.0 °F 22% 30.24 in 10.0 mi SSW 8.1 mph - N/A   Scattered Clouds
5:53 PM 54.0 °F - 21.9 °F 29% 30.25 in 10.0 mi South 6.9 mph - N/A   Clear
6:53 PM 57.0 °F - 21.0 °F 25% 30.24 in 10.0 mi SSW 9.2 mph - N/A   Clear
7:53 PM 53.1 °F - 23.0 °F 31% 30.24 in 10.0 mi SSW 5.8 mph - N/A   Clear
8:53 PM 53.1 °F - 24.1 °F 32% 30.24 in 10.0 mi SSW 5.8 mph - N/A   Clear
9:53 PM 54.0 °F - 24.1 °F 31% 30.22 in 10.0 mi SSW 9.2 mph - N/A   Clear
10:53 PM 53.1 °F - 26.1 °F 35% 30.22 in 10.0 mi SSW 9.2 mph - N/A   Clear
11:53 PM 52.0 °F - 27.0 °F 38% 30.22 in 10.0 mi South 5.8 mph - N/A   Partly Cloudy